Overview Statistics Trail Chart Weather Telemetry Raw packets
 

This is the latest recevied weather packets stored in our database for station/object 2E1HJE-10. If no packets are shown the sender has not sent any weather packets the latest 10 day(s).

<< 2 3 4 5 6 7 8 >>
Time Temp. Humidity Pressure Rain* Wind** Luminosity Snow
1788523106 22.22° C 64% 1012.1 hPa 0 mm - - -
1788522507 22.22° C 64% 1012.1 hPa 0 mm - - -
1788521907 22.22° C 64% 1012.1 hPa 0 mm - - -
1788521307 22.22° C 64% 1012.1 hPa 0 mm - - -
1788520708 22.22° C 64% 1012.1 hPa 0 mm - - -
1788520108 22.22° C 64% 1012.1 hPa 0 mm - - -
1788519507 22.22° C 78% 1012 hPa 0 mm - - -
1788518908 22.22° C 78% 1012 hPa 0 mm - - -
1788518307 21.67° C 78% 1012 hPa 0 mm - - -
1788517708 21.11° C 78% 1012 hPa 0 mm - - -
1788517107 21.11° C 75% 1011.7 hPa 0 mm - - -
1788516508 21.67° C 75% 1011.7 hPa 0 mm - - -
1788515907 21.67° C 74% 1011.4 hPa 0 mm - - -
1788515308 21.67° C 74% 1011.4 hPa 0 mm - - -
1788514708 21.67° C 74% 1011.4 hPa 0 mm - - -
1788514108 21.67° C 74% 1011.4 hPa 0 mm - - -
1788513507 21.67° C 75% 1011.4 hPa 0 mm - - -
1788512907 21.67° C 75% 1011.4 hPa 0 mm - - -
1788512308 21.67° C 79% 1011.1 hPa 0 mm - - -
1788511708 21.67° C 79% 1011.1 hPa 0 mm - - -
1788511108 21.11° C 79% 1011.1 hPa 0 mm - - -
1788510507 21.11° C 79% 1011.1 hPa 0 mm - - -
1788509907 21.11° C 79% 1011.3 hPa 0 mm - - -
1788508107 20.56° C 83% 1011.2 hPa 0 mm - - -
1788506908 20.56° C 83% 1011.2 hPa 0 mm - - -

* Rain latest hour (hover to see other rain measurements)
** Current wind speed in m/s (hover to see current wind gust speed)